Date String (YYYY-MM-DD hh:mm:ss) UTC,Instrument flags,Ambient pressure (hPa),Sample flow (lpm),Bypass flow (lpm),Sample temperature (°C),Ambient temperature (°C),ASC tube jacket temperature (°C),LED temperature (°C),Box temperature (°C),Sample RH (%),Span deviation,Mass concentration (μg/m³),Mass concentration (μg/m³),Mass concentration (μg/m³)
DateTimeUTC,F1_M11,P_M11,Q1_M11,Q2_M11,T1_M11,T2_M11,T3_M11,T4_M11,T5_M11,U1_M11,ZSPAN_M11,X2_M11,X0_M11,X1_M11
2023-04-29 19:00:00,,0832.4,5.00,0.00,28.2,27.2,00.0,36.5,29.8,11.9,0000.0,0004.82,0012.74,0002.67
2023-04-29 19:01:00,,0832.5,5.00,0.00,28.3,27.2,00.0,36.5,29.8,11.6,0000.0,0004.83,0012.61,0002.67
2023-04-29 19:02:00,,0832.4,5.00,0.00,28.3,27.2,00.0,36.5,29.9,11.6,0000.0,0004.78,0012.04,0002.64
2023-04-29 19:03:00,,0832.4,5.00,0.00,28.3,27.2,00.0,36.5,29.9,11.8,0000.0,0004.78,0011.73,0002.64
2023-04-29 19:04:00,,0832.4,4.99,0.00,28.3,27.2,00.0,36.6,29.8,11.6,0000.0,0004.85,0012.47,0002.64
2023-04-29 19:05:00,,0832.4,5.00,0.00,28.3,27.2,00.0,36.6,29.9,11.4,0000.0,0004.86,0013.95,0002.65
2023-04-29 19:06:00,,0832.4,4.99,0.00,28.4,27.3,00.0,36.6,29.9,11.5,0000.0,0004.84,0013.74,0002.63
2023-04-29 19:07:00,,0832.4,5.00,0.00,28.4,27.3,00.0,36.6,29.9,11.5,0000.0,0004.87,0013.59,0002.65
2023-04-29 19:08:00,,0832.4,5.01,0.00,28.4,27.3,00.0,36.6,29.9,11.5,0000.0,0004.88,0013.66,0002.65
2023-04-29 19:09:00,,0832.3,5.01,0.00,28.4,27.3,00.0,36.6,29.9,11.6,0000.0,0004.88,0013.67,0002.65
2023-04-29 19:10:00,,0832.3,5.00,0.00,28.4,27.3,00.0,36.7,30.0,11.2,0000.0,0004.92,0014.20,0002.63
2023-04-29 19:11:00,,0832.4,5.00,0.00,28.4,27.3,00.0,36.7,30.0,11.5,0000.0,0004.93,0014.46,0002.60
2023-04-29 19:12:00,,0832.3,5.00,0.00,28.5,27.3,00.0,36.7,30.0,11.5,0000.0,0004.98,0014.54,0002.59
2023-04-29 19:13:00,,0832.3,4.99,0.00,28.5,27.3,00.0,36.7,30.1,11.7,0000.0,0005.02,0014.66,0002.60
2023-04-29 19:14:00,,0832.3,5.00,0.00,28.5,27.3,00.0,36.7,30.1,12.3,0000.0,0005.02,0014.72,0002.57
2023-04-29 19:15:00,,0832.3,5.01,0.00,28.5,27.3,00.0,36.7,30.1,11.7,0000.0,0005.00,0014.38,0002.56
2023-04-29 19:16:00,,0832.3,4.99,0.00,28.5,27.3,00.0,36.8,30.1,11.6,0000.0,0004.95,0012.88,0002.54
2023-04-29 19:17:00,,0832.2,5.01,0.00,28.5,27.3,00.0,36.8,30.1,11.4,0000.0,0004.98,0013.02,0002.57
2023-04-29 19:18:00,,0832.2,5.00,0.00,28.5,27.3,00.0,36.8,30.1,11.8,0000.0,0004.92,0013.53,0002.56
2023-04-29 19:19:00,,0832.2,5.01,0.00,28.5,27.4,00.0,36.8,30.1,11.4,0000.0,0004.92,0013.53,0002.56
2023-04-29 19:20:00,,0832.2,5.00,0.00,28.6,27.4,00.0,36.8,30.2,11.3,0000.0,0004.87,0013.84,0002.54
2023-04-29 19:21:00,,0832.2,5.00,0.00,28.6,27.4,00.0,36.8,30.2,11.3,0000.0,0004.85,0013.45,0002.57
2023-04-29 19:22:00,,0832.3,5.00,0.00,28.6,27.4,00.0,36.8,30.1,11.2,0000.0,0004.89,0013.77,0002.58
2023-04-29 19:23:00,,0832.2,4.99,0.00,28.6,27.4,00.0,36.8,30.2,11.1,0000.0,0004.86,0013.77,0002.59
2023-04-29 19:24:00,,0832.2,5.00,0.00,28.6,27.4,00.0,36.9,30.2,11.2,0000.0,0004.86,0013.86,0002.59
2023-04-29 19:25:00,,0832.2,5.00,0.00,28.6,27.4,00.0,36.9,30.2,11.2,0000.0,0004.92,0013.88,0002.63
2023-04-29 19:26:00,,0832.2,5.00,0.00,28.6,27.4,00.0,36.9,30.2,11.4,0000.0,0004.85,0013.21,0002.65
2023-04-29 19:27:00,,0832.2,5.00,0.00,28.6,27.4,00.0,36.9,30.2,11.8,0000.0,0004.84,0013.21,0002.64
2023-04-29 19:28:00,,0832.2,4.99,0.00,28.6,27.4,00.0,36.9,30.2,11.5,0000.0,0004.85,0012.88,0002.63
2023-04-29 19:29:00,,0832.2,5.00,0.00,28.6,27.4,00.0,36.9,30.2,11.4,0000.0,0004.88,0012.41,0002.66
2023-04-29 19:30:00,,0832.2,5.00,0.00,28.6,27.4,00.0,36.9,30.2,11.2,0000.0,0004.83,0012.07,0002.66
2023-04-29 19:31:00,,0832.2,5.02,0.00,28.6,27.3,00.0,36.9,30.2,11.2,0000.0,0004.90,0011.73,0002.71
2023-04-29 19:32:00,,0832.2,4.99,0.00,28.6,27.3,00.0,36.9,30.2,11.3,0000.0,0004.88,0012.12,0002.69
2023-04-29 19:33:00,,0832.2,5.00,0.00,28.6,27.3,00.0,36.9,30.2,11.2,0000.0,0004.87,0012.18,0002.68
2023-04-29 19:34:00,,0832.1,5.00,0.00,28.6,27.3,00.0,36.9,30.2,11.2,0000.0,0004.87,0012.21,0002.69
2023-04-29 19:35:00,,0832.1,5.00,0.00,28.6,27.4,00.0,37.0,30.2,11.3,0000.0,0004.81,0012.05,0002.70
2023-04-29 19:36:00,,0832.1,4.99,0.00,28.6,27.4,00.0,37.0,30.2,11.2,0000.0,0004.74,0011.96,0002.67
2023-04-29 19:37:00,,0832.1,5.01,0.00,28.6,27.4,00.0,37.0,30.2,11.7,0000.0,0004.75,0011.99,0002.67
2023-04-29 19:38:00,,0832.1,5.00,0.00,28.7,27.4,00.0,37.0,30.2,11.7,0000.0,0004.79,0011.99,0002.69
2023-04-29 19:39:00,,0832.0,5.00,0.00,28.7,27.4,00.0,37.0,30.2,11.5,0000.0,0004.76,0011.84,0002.70
2023-04-29 19:40:00,,0832.0,4.99,0.00,28.7,27.4,00.0,37.0,30.2,11.5,0000.0,0004.76,0011.93,0002.67
2023-04-29 19:41:00,,0832.0,5.00,0.00,28.7,27.4,00.0,37.0,30.2,11.4,0000.0,0004.74,0012.00,0002.65
2023-04-29 19:42:00,,0832.0,4.99,0.00,28.7,27.4,00.0,37.0,30.2,11.6,0000.0,0004.68,0012.01,0002.61
2023-04-29 19:43:00,,0832.1,5.02,0.00,28.7,27.4,00.0,37.0,30.2,11.6,0000.0,0004.71,0012.23,0002.62
2023-04-29 19:44:00,,0832.1,5.00,0.00,28.7,27.4,00.0,37.0,30.3,11.4,0000.0,0004.69,0011.54,0002.61
2023-04-29 19:45:00,,0832.1,4.99,0.00,28.7,27.4,00.0,37.0,30.3,11.2,0000.0,0004.72,0011.55,0002.59
2023-04-29 19:46:00,,0832.1,4.99,0.00,28.7,27.5,00.0,37.0,30.3,11.2,0000.0,0004.77,0011.77,0002.56
2023-04-29 19:47:00,,0832.1,5.01,0.00,28.7,27.5,00.0,37.0,30.3,11.3,0000.0,0004.80,0011.86,0002.56
2023-04-29 19:48:00,,0832.1,5.00,0.00,28.8,27.6,00.0,37.1,30.3,11.6,0000.0,0004.80,0012.17,0002.56
2023-04-29 19:49:00,,0832.1,4.99,0.00,28.8,27.6,00.0,37.1,30.4,11.5,0000.0,0004.77,0012.72,0002.55
2023-04-29 19:50:00,,0832.1,5.00,0.00,28.8,27.6,00.0,37.1,30.4,11.8,0000.0,0004.84,0013.16,0002.54
2023-04-29 19:51:00,,0832.1,5.01,0.00,28.8,27.6,00.0,37.1,30.4,11.5,0000.0,0004.89,0013.15,0002.53
2023-04-29 19:52:00,,0832.1,5.00,0.00,28.8,27.6,00.0,37.1,30.4,11.3,0000.0,0004.93,0014.71,0002.54
2023-04-29 19:53:00,,0832.1,5.01,0.00,28.8,27.6,00.0,37.1,30.4,11.2,0000.0,0004.95,0014.95,0002.55
2023-04-29 19:54:00,,0832.0,5.00,0.00,28.8,27.6,00.0,37.1,30.4,11.3,0000.0,0004.90,0014.58,0002.55
2023-04-29 19:55:00,,0832.1,5.00,0.00,28.8,27.6,00.0,37.1,30.4,11.2,0000.0,0004.91,0014.68,0002.56
2023-04-29 19:56:00,,0832.1,4.99,0.00,28.9,27.7,00.0,37.2,30.4,11.6,0000.0,0004.91,0015.08,0002.56
2023-04-29 19:57:00,,0832.0,4.99,0.00,28.9,27.7,00.0,37.2,30.5,11.3,0000.0,0004.92,0015.30,0002.57
2023-04-29 19:58:00,,0832.0,5.00,0.00,28.9,27.7,00.0,37.2,30.5,11.3,0000.0,0004.92,0015.14,0002.58
2023-04-29 19:59:00,,0832.0,5.02,0.00,28.9,27.7,00.0,37.2,30.5,11.4,0000.0,0004.92,0014.90,0002.56
